Location: Brunembert
(50.7122°N, 1.8935°E)
Time: 09:48:38
(UTC+00:00)

SPOT 1/Viking Rocket - Pass Details

Date: 22 April 2021
Orbit: 777 x 794 km, 98.4° (Epoch: 05 May)

Event Time Altitude Azimuth Distance (km) Brightness Sun altitude
Exits shadow 21:14:17 20° 186° (S) 1,759 5.0 -18.2°
Maximum altitude 21:17:48 57° 259° (W) 932 4.0 -18.5°
Drops below altitude 10° 21:22:58 10° 338° (NNW) 2,372 7.1 -19.0°
Sets 21:25:21 0° 343° (NNW) 3,304 8.1 -19.3°
